Погода в Аргаяше

Россия / Челябинская область     55°29′19″N   60°52′34″E
темп.,
°C
ветер,
м/с
пор.,
м/с
влажн.,
%
обл.,
%
осадки,
мм/ч
давл.,
гПа
погр.,
м
20 июня, вс
вс2023:00+14зюз3997100 3.0 1013267
02:00+16з61493100 1.1 1010433
05:00+17зсз8169367 2.0 1009530
08:00+19сз7138648 0.2 1010914
11:00+22сз9165219 0.2 10101933
14:00+22ссз914390 0.0 10112519
17:00+20ссз814391 0.0 10122244
20:00+16ссз7144622 0.0 1014599
21 июня, пн
пн2123:00+14ссз81539100 0.0 1017736
02:00+10сз512535 0.0 1018336
05:00+9сз613570 0.0 1020451
08:00+13ссз712566 0.0 1021976
11:00+16с79456 0.0 10221454
14:00+19с5738100 0.0 10221821
17:00+20ссв353640 0.0 10211318
20:00+17ююв235788 0.0 102039
22 июня, вт
вт2223:00+15юз3553100 0.0 102087
02:00+15з2363100 0.0 101950
05:00+14зсз3772100 0.0 1019199
08:00+17зсз467594 0.0 1018351
11:00+22сз476518 0.1 1017973
14:00+25ссз79625 1.4 10161444
17:00+24с466919 2.9 10161005
20:00+22вюв238153 0.3 1016115
23 июня, ср
ср2323:00+18ююз228963 0.5 101622
02:00+16зюз22955 1.1 101526
05:00+15ссв379987 2.3 1016213
08:00+13в4896100 0.4 1018415
11:00+13вюв3597100 6.4 1019345
14:00+12в4697100 3.9 1019329
17:00+12вюв3597100 6.0 1020285
20:00+14ююв2289100 0.0 1020362
24 июня, чт
чт2423:00+11ююв22964 0.0 102017
02:00+10ююв229610 0.0 102032
05:00+10ю249597 0.0 101993
08:00+13ю3486100 0.0 1019245
11:00+15ю3482100 0.0 1018466
14:00+20ююз237065 0.0 1016955
17:00+22в2265100 0.0 1015924
20:00+19юв358132 0.0 1015129